| time (UTC) | temp C | wind direction | speed KPH | gust KPH | rain 1hr cm | rain 24hr cm | rain mn cm | humidity % | barometer mb |
| 20260507160104 | 18 | 221 | 3.2 | 9.7 | 0.00 | 0.00 | 0.00 | 77 | 1017.4 |
| 20260507154558 | 18 | 153 | 4.8 | 11.3 | 0.00 | 0.00 | 0.00 | 78 | 1017.4 |
| 20260507153059 | 16 | 221 | 3.2 | 11.3 | 0.00 | 0.00 | 0.00 | 80 | 1017.4 |
| 20260507151555 | 17 | 149 | 3.2 | 12.9 | 0.00 | 0.00 | 0.00 | 80 | 1017.4 |
| 20260507150057 | 16 | 152 | 1.6 | 9.7 | 0.00 | 0.00 | 0.00 | 81 | 1017.3 |
| 20260507144608 | 16 | 157 | 1.6 | 8.0 | 0.00 | 0.00 | 0.00 | 83 | 1017.2 |
| 20260507143101 | 15 | 148 | 4.8 | 9.7 | 0.00 | 0.00 | 0.00 | 86 | 1017.0 |
| 20260507141600 | 15 | 155 | 1.6 | 8.0 | 0.00 | 0.00 | 0.00 | 87 | 1016.9 |
| 20260507140049 | 14 | 153 | 3.2 | 9.7 | 0.00 | 0.00 | 0.00 | 87 | 1016.8 |
| 20260507134556 | 15 | 116 | 3.2 | 6.4 | 0.00 | 0.00 | 0.00 | 86 | 1016.7 |
| 20260507133137 | 14 | 116 | 3.2 | 9.7 | 0.00 | 0.00 | 0.00 | 89 | 1016.6 |
| 20260507131558 | 13 | 125 | 3.2 | 9.7 | 0.00 | 0.00 | 0.00 | 89 | 1016.5 |
| 20260507124556 | 13 | 121 | 3.2 | 9.7 | 0.00 | 0.00 | 0.00 | 88 | 1016.3 |
| 20260507123053 | 13 | 123 | 1.6 | 4.8 | 0.00 | 0.00 | 0.00 | 88 | 1016.3 |
| 20260507121553 | 13 | 123 | 1.6 | 6.4 | 0.00 | 0.00 | 0.00 | 88 | 1016.2 |
| 20260507120052 | 13 | 123 | 3.2 | 6.4 | 0.00 | 0.00 | 0.00 | 88 | 1016.3 |
| 20260507114609 | 13 | 139 | 3.2 | 6.4 | 0.00 | 0.00 | 0.00 | 88 | 1016.3 |
| 20260507113058 | 13 | 0 | 1.6 | 4.8 | 0.00 | 0.00 | 0.00 | 88 | 1016.4 |
| 20260507111555 | 13 | 140 | 1.6 | 3.2 | 0.00 | 0.00 | 0.00 | 88 | 1016.4 |
| 20260507110054 | 13 | 0 | 0.0 | 3.2 | 0.00 | 0.00 | 0.00 | 88 | 1016.5 |
| 20260507104552 | 13 | 0 | 0.0 | 3.2 | 0.00 | 0.00 | 0.00 | 88 | 1016.6 |
| 20260507103055 | 13 | 140 | 1.6 | 4.8 | 0.00 | 0.00 | 0.00 | 88 | 1016.7 |
| 20260507101550 | 13 | 140 | 3.2 | 6.4 | 0.00 | 0.00 | 0.00 | 88 | 1016.7 |
| 20260507100054 | 13 | 139 | 3.2 | 8.0 | 0.00 | 0.00 | 0.00 | 87 | 1016.8 |
| 20260507094600 | 13 | 141 | 3.2 | 8.0 | 0.00 | 0.00 | 0.00 | 87 | 1016.9 |
| 20260507093056 | 14 | 155 | 1.6 | 8.0 | 0.00 | 0.00 | 0.00 | 87 | 1017.0 |
| 20260507091557 | 14 | 155 | 3.2 | 9.7 | 0.00 | 0.00 | 0.00 | 87 | 1017.1 |
| 20260507090051 | 14 | 159 | 3.2 | 8.0 | 0.00 | 0.00 | 0.00 | 87 | 1017.2 |
| 20260507084557 | 14 | 159 | 1.6 | 6.4 | 0.00 | 0.00 | 0.00 | 87 | 1017.4 |
| 20260507083053 | 14 | 160 | 1.6 | 8.0 | 0.00 | 0.00 | 0.00 | 87 | 1017.5 |
| 20260507081555 | 14 | 161 | 3.2 | 8.0 | 0.00 | 0.00 | 0.00 | 87 | 1017.6 |
| 20260507080056 | 14 | 161 | 4.8 | 9.7 | 0.00 | 0.00 | 0.00 | 86 | 1017.7 |
| 20260507074557 | 14 | 163 | 3.2 | 8.0 | 0.00 | 0.00 | 0.00 | 86 | 1017.6 |
| 20260507073102 | 14 | 163 | 3.2 | 8.0 | 0.00 | 0.00 | 0.00 | 86 | 1017.8 |
| 20260507071553 | 14 | 167 | 4.8 | 9.7 | 0.00 | 0.00 | 0.00 | 85 | 1017.8 |
| 20260507070057 | 15 | 212 | 1.6 | 6.4 | 0.00 | 0.00 | 0.00 | 85 | 1017.9 |
| 20260507064557 | 15 | 217 | 3.2 | 8.0 | 0.00 | 0.00 | 0.00 | 85 | 1017.8 |
| 20260507063100 | 15 | 290 | 1.6 | 3.2 | 0.00 | 0.00 | 0.00 | 85 | 1017.9 |
| 20260507061553 | 15 | 0 | 0.0 | 3.2 | 0.00 | 0.00 | 0.00 | 85 | 1017.9 |
| 20260507060056 | 15 | 0 | 0.0 | 3.2 | 0.00 | 0.00 | 0.00 | 85 | 1018.0 |
| 20260507054557 | 15 | 0 | 0.0 | 4.8 | 0.00 | 0.00 | 0.00 | 85 | 1018.1 |
| 20260507053116 | 15 | 290 | 0.0 | 3.2 | 0.00 | 0.00 | 0.00 | 84 | 1018.1 |
| 20260507051558 | 15 | 0 | 0.0 | 3.2 | 0.00 | 0.00 | 0.00 | 83 | 1018.0 |
| 20260507050058 | 15 | 0 | 0.0 | 3.2 | 0.00 | 0.00 | 0.00 | 82 | 1017.8 |
| 20260507044630 | 15 | 291 | 1.6 | 4.8 | 0.00 | 0.00 | 0.00 | 83 | 1017.9 |
| 20260507043053 | 15 | 294 | 0.0 | 3.2 | 0.00 | 0.00 | 0.00 | 82 | 1017.9 |
| 20260507041552 | 16 | 294 | 1.6 | 6.4 | 0.00 | 0.00 | 0.00 | 81 | 1017.9 |
| 20260507040050 | 16 | 291 | 3.2 | 11.3 | 0.00 | 0.00 | 0.00 | 81 | 1017.8 |
| 20260507034601 | 16 | 289 | 3.2 | 9.7 | 0.00 | 0.00 | 0.00 | 82 | 1017.7 |
| 20260507033105 | 16 | 288 | 1.6 | 8.0 | 0.00 | 0.00 | 0.00 | 83 | 1017.6 |
| 20260507031600 | 16 | 301 | 4.8 | 8.0 | 0.00 | 0.00 | 0.00 | 82 | 1017.4 |
| 20260507030108 | 16 | 286 | 3.2 | 12.9 | 0.00 | 0.00 | 0.00 | 82 | 1017.3 |
| 20260507024609 | 16 | 236 | 0.0 | 6.4 | 0.00 | 0.00 | 0.00 | 82 | 1017.0 |
| 20260507023051 | 16 | 245 | 3.2 | 9.7 | 0.00 | 0.00 | 0.00 | 82 | 1017.0 |
| 20260507021555 | 16 | 248 | 4.8 | 12.9 | 0.00 | 0.00 | 0.00 | 82 | 1016.8 |
| 20260507020059 | 17 | 256 | 6.4 | 14.5 | 0.00 | 0.00 | 0.00 | 82 | 1016.7 |
| 20260507014559 | 17 | 238 | 9.7 | 17.7 | 0.00 | 0.00 | 0.00 | 79 | 1016.6 |
| 20260507013100 | 18 | 261 | 9.7 | 16.1 | 0.00 | 0.00 | 0.00 | 75 | 1016.7 |
| 20260507011552 | 18 | 261 | 11.3 | 20.9 | 0.00 | 0.00 | 0.00 | 74 | 1016.7 |
| 20260507010049 | 19 | 263 | 9.7 | 22.5 | 0.00 | 0.00 | 0.00 | 73 | 1016.5 |
| 20260507004552 | 18 | 360 | 11.3 | 22.5 | 0.00 | 0.00 | 0.00 | 72 | 1016.5 |
| 20260507003051 | 18 | 259 | 9.7 | 24.1 | 0.00 | 0.00 | 0.00 | 75 | 1016.4 |
| 20260507001556 | 19 | 253 | 9.7 | 20.9 | 0.00 | 0.00 | 0.00 | 75 | 1016.4 |
| 20260507000053 | 19 | 260 | 9.7 | 19.3 | 0.00 | 0.00 | 0.00 | 73 | 1016.2 |
| 20260506234558 | 19 | 262 | 9.7 | 22.5 | 0.00 | 0.00 | 0.00 | 74 | 1016.2 |
| 20260506233058 | 18 | 252 | 11.3 | 22.5 | 0.00 | 0.00 | 0.00 | 75 | 1016.2 |
| 20260506231555 | 18 | 360 | 11.3 | 22.5 | 0.00 | 0.00 | 0.00 | 75 | 1016.4 |
| 20260506230052 | 18 | 260 | 14.5 | 24.1 | 0.00 | 0.00 | 0.00 | 75 | 1016.6 |
| 20260506224559 | 18 | 252 | 14.5 | 27.4 | 0.00 | 0.03 | 0.00 | 74 | 1016.6 |
| 20260506223050 | 18 | 223 | 14.5 | 27.4 | 0.00 | 0.03 | 0.00 | 74 | 1016.8 |
| 20260506221551 | 19 | 242 | 14.5 | 27.4 | 0.00 | 0.03 | 0.00 | 73 | 1016.9 |
| 20260506220054 | 19 | 232 | 12.9 | 27.4 | 0.00 | 0.03 | 0.00 | 73 | 1017.1 |
| 20260506214550 | 19 | 261 | 14.5 | 29.0 | 0.00 | 0.03 | 0.00 | 74 | 1017.3 |
| 20260506213053 | 18 | 279 | 16.1 | 25.7 | 0.00 | 0.03 | 0.00 | 74 | 1017.3 |
| 20260506211552 | 18 | 265 | 14.5 | 27.4 | 0.00 | 0.03 | 0.00 | 73 | 1017.5 |
| 20260506210054 | 18 | 273 | 16.1 | 27.4 | 0.00 | 0.03 | 0.00 | 73 | 1017.5 |
| 20260506204549 | 19 | 360 | 11.3 | 27.4 | 0.00 | 0.03 | 0.00 | 72 | 1017.7 |
| 20260506203051 | 18 | 360 | 11.3 | 24.1 | 0.00 | 0.03 | 0.00 | 73 | 1017.8 |
| 20260506201555 | 19 | 273 | 9.7 | 20.9 | 0.00 | 0.03 | 0.00 | 72 | 1017.8 |
| 20260506200054 | 18 | 279 | 9.7 | 25.7 | 0.00 | 0.03 | 0.00 | 72 | 1018.0 |
| 20260506194554 | 18 | 275 | 11.3 | 24.1 | 0.00 | 0.03 | 0.00 | 71 | 1018.2 |
| 20260506193051 | 19 | 277 | 11.3 | 24.1 | 0.00 | 0.03 | 0.00 | 70 | 1018.4 |
| 20260506191551 | 18 | 248 | 11.3 | 22.5 | 0.00 | 0.03 | 0.00 | 71 | 1018.4 |
| 20260506190058 | 19 | 310 | 9.7 | 22.5 | 0.00 | 0.03 | 0.00 | 69 | 1018.4 |
| 20260506184555 | 18 | 275 | 11.3 | 19.3 | 0.00 | 0.03 | 0.00 | 68 | 1018.4 |
| 20260506183057 | 18 | 260 | 8.0 | 17.7 | 0.00 | 0.03 | 0.00 | 67 | 1018.7 |
| 20260506181558 | 19 | 295 | 8.0 | 17.7 | 0.00 | 0.03 | 0.00 | 68 | 1018.6 |
| 20260506180051 | 18 | 281 | 8.0 | 20.9 | 0.00 | 0.03 | 0.00 | 70 | 1018.8 |
| 20260506174557 | 18 | 268 | 6.4 | 19.3 | 0.00 | 0.03 | 0.00 | 70 | 1018.9 |
| 20260506173122 | 18 | 292 | 8.0 | 16.1 | 0.00 | 0.03 | 0.00 | 70 | 1018.9 |
| 20260506171601 | 18 | 252 | 8.0 | 19.3 | 0.00 | 0.03 | 0.00 | 70 | 1018.9 |
| 20260506170055 | 18 | 250 | 8.0 | 16.1 | 0.00 | 0.03 | 0.00 | 69 | 1018.9 |
| 20260506164557 | 18 | 269 | 6.4 | 16.1 | 0.00 | 0.05 | 0.00 | 69 | 1018.9 |
| 20260506163104 | 18 | 236 | 4.8 | 12.9 | 0.00 | 0.05 | 0.00 | 69 | 1018.9 |
| 20260506161617 | 18 | 239 | 3.2 | 12.9 | 0.00 | 0.05 | 0.00 | 69 | 1018.9 |